| time (UTC) | temp C | wind direction | speed KPH | gust KPH | rain 1hr cm | rain 24hr cm | rain mn cm | humidity % | barometer mb |
| 20260506070504 | 16 | 269 | 4.8 | 8.0 | 0.00 | 0.00 | 0.00 | 71 | 989.4 |
| 20260506062459 | 15 | 59 | 1.6 | 3.2 | 0.00 | 0.00 | 0.00 | 77 | 989.0 |
| 20260506061958 | 15 | 292 | 0.0 | 4.8 | 0.00 | 0.00 | 0.00 | 76 | 989.1 |
| 20260506061458 | 15 | 298 | 0.0 | 8.0 | 0.00 | 0.00 | 0.00 | 75 | 989.3 |
| 20260506060957 | 15 | 126 | 0.0 | 4.8 | 0.00 | 0.00 | 0.00 | 76 | 989.2 |
| 20260506060456 | 14 | 95 | 0.0 | 1.6 | 0.00 | 0.00 | 0.00 | 79 | 989.2 |
| 20260506050949 | 13 | 225 | 4.8 | 9.7 | 0.00 | 0.00 | 0.00 | 82 | 988.9 |
| 20260506050449 | 12 | 153 | 1.6 | 4.8 | 0.00 | 0.00 | 0.00 | 83 | 989.0 |
| 20260506044948 | 12 | 136 | 3.2 | 3.2 | 0.00 | 0.00 | 0.00 | 85 | 988.8 |
| 20260506044447 | 12 | 222 | 1.6 | 9.7 | 0.00 | 0.00 | 0.00 | 85 | 988.6 |
| 20260506043947 | 12 | 229 | 6.4 | 8.0 | 0.00 | 0.00 | 0.00 | 85 | 988.8 |
| 20260506043446 | 12 | 181 | 3.2 | 4.8 | 0.00 | 0.00 | 0.00 | 85 | 988.8 |
| 20260506042946 | 12 | 185 | 1.6 | 3.2 | 0.00 | 0.00 | 0.00 | 84 | 988.5 |
| 20260506042446 | 12 | 185 | 0.0 | 1.6 | 0.00 | 0.00 | 0.00 | 85 | 988.4 |
| 20260506041944 | 12 | 141 | 0.0 | 3.2 | 0.00 | 0.00 | 0.00 | 85 | 988.7 |
| 20260506041444 | 12 | 269 | 3.2 | 4.8 | 0.00 | 0.00 | 0.00 | 85 | 988.6 |
| 20260506040944 | 12 | 188 | 1.6 | 8.0 | 0.00 | 0.00 | 0.00 | 86 | 988.5 |
| 20260506040444 | 12 | 193 | 4.8 | 9.7 | 0.00 | 0.00 | 0.00 | 86 | 988.4 |
| 20260506035943 | 12 | 223 | 8.0 | 12.9 | 0.00 | 0.00 | 0.00 | 86 | 988.5 |
| 20260506035442 | 12 | 207 | 4.8 | 8.0 | 0.00 | 0.00 | 0.00 | 86 | 988.5 |
| 20260506034942 | 12 | 212 | 4.8 | 8.0 | 0.00 | 0.00 | 0.00 | 86 | 988.4 |
| 20260506034441 | 12 | 210 | 6.4 | 8.0 | 0.00 | 0.00 | 0.00 | 84 | 988.2 |
| 20260506033941 | 12 | 141 | 0.0 | 0.0 | 0.00 | 0.00 | 0.00 | 86 | 987.9 |
| 20260506033440 | 11 | 125 | 0.0 | 3.2 | 0.00 | 0.00 | 0.00 | 85 | 987.9 |
| 20260506032939 | 12 | 95 | 1.6 | 1.6 | 0.00 | 0.00 | 0.00 | 84 | 987.8 |
| 20260506032439 | 12 | 200 | 0.0 | 0.0 | 0.00 | 0.00 | 0.00 | 83 | 987.9 |
| 20260506031939 | 12 | 200 | 0.0 | 1.6 | 0.00 | 0.00 | 0.00 | 83 | 987.8 |
| 20260506031438 | 12 | 200 | 0.0 | 1.6 | 0.00 | 0.00 | 0.00 | 83 | 987.9 |
| 20260506030937 | 12 | 321 | 0.0 | 0.0 | 0.00 | 0.00 | 0.00 | 83 | 987.9 |
| 20260506030436 | 12 | 328 | 0.0 | 0.0 | 0.00 | 0.00 | 0.00 | 83 | 987.9 |
| 20260506025936 | 12 | 342 | 0.0 | 0.0 | 0.00 | 0.00 | 0.00 | 83 | 987.9 |
| 20260506025435 | 12 | 292 | 0.0 | 3.2 | 0.00 | 0.00 | 0.00 | 83 | 988.2 |
| 20260506024935 | 12 | 278 | 1.6 | 3.2 | 0.00 | 0.00 | 0.00 | 82 | 988.4 |
| 20260506024434 | 12 | 192 | 1.6 | 3.2 | 0.00 | 0.00 | 0.00 | 81 | 988.4 |
| 20260506023933 | 12 | 188 | 4.8 | 8.0 | 0.00 | 0.00 | 0.00 | 80 | 988.5 |
| 20260506023432 | 12 | 253 | 4.8 | 14.5 | 0.00 | 0.00 | 0.00 | 80 | 988.7 |
| 20260506022931 | 12 | 236 | 8.0 | 11.3 | 0.00 | 0.00 | 0.00 | 79 | 988.7 |
| 20260506022420 | 13 | 273 | 4.8 | 8.0 | 0.00 | 0.00 | 0.00 | 77 | 988.7 |
| 20260506021920 | 13 | 251 | 1.6 | 3.2 | 0.00 | 0.00 | 0.00 | 77 | 988.6 |
| 20260506021419 | 13 | 302 | 1.6 | 4.8 | 0.00 | 0.00 | 0.00 | 77 | 988.4 |
| 20260506020908 | 13 | 223 | 1.6 | 3.2 | 0.00 | 0.00 | 0.00 | 77 | 988.8 |
| 20260506020408 | 13 | 306 | 3.2 | 4.8 | 0.00 | 0.00 | 0.00 | 76 | 988.6 |
| 20260506015906 | 13 | 297 | 4.8 | 4.8 | 0.00 | 0.00 | 0.00 | 76 | 988.9 |
| 20260506015356 | 13 | 141 | 0.0 | 1.6 | 0.00 | 0.00 | 0.00 | 76 | 988.7 |
| 20260506014855 | 13 | 321 | 1.6 | 3.2 | 0.00 | 0.00 | 0.00 | 75 | 988.6 |
| 20260506014354 | 13 | 310 | 4.8 | 4.8 | 0.00 | 0.00 | 0.00 | 75 | 988.6 |
| 20260506013854 | 13 | 288 | 4.8 | 4.8 | 0.00 | 0.00 | 0.00 | 75 | 988.6 |
| 20260506013343 | 13 | 286 | 4.8 | 4.8 | 0.00 | 0.00 | 0.00 | 75 | 988.4 |
| 20260506012842 | 13 | 0 | 3.2 | 9.7 | 0.00 | 0.00 | 0.00 | 75 | 988.7 |
| 20260506012341 | 13 | 301 | 4.8 | 11.3 | 0.00 | 0.00 | 0.00 | 75 | 988.6 |
| 20260506011840 | 13 | 289 | 3.2 | 8.0 | 0.00 | 0.00 | 0.00 | 75 | 988.7 |
| 20260506011329 | 13 | 314 | 4.8 | 8.0 | 0.00 | 0.00 | 0.00 | 74 | 988.6 |
| 20260506010829 | 13 | 309 | 1.6 | 8.0 | 0.00 | 0.00 | 0.00 | 74 | 988.7 |
| 20260506010329 | 13 | 328 | 3.2 | 3.2 | 0.00 | 0.00 | 0.00 | 74 | 988.6 |
| 20260506005828 | 13 | 298 | 3.2 | 4.8 | 0.00 | 0.00 | 0.00 | 73 | 988.5 |
| 20260506005317 | 13 | 231 | 1.6 | 4.8 | 0.00 | 0.00 | 0.00 | 74 | 988.7 |
| 20260506004816 | 13 | 335 | 3.2 | 4.8 | 0.00 | 0.00 | 0.00 | 74 | 988.6 |
| 20260506004315 | 13 | 293 | 4.8 | 8.0 | 0.00 | 0.00 | 0.00 | 74 | 988.7 |
| 20260506003804 | 13 | 287 | 4.8 | 8.0 | 0.00 | 0.00 | 0.00 | 74 | 988.5 |
| 20260506003303 | 13 | 299 | 6.4 | 8.0 | 0.00 | 0.00 | 0.00 | 74 | 988.6 |
| 20260506002803 | 13 | 284 | 4.8 | 8.0 | 0.00 | 0.00 | 0.00 | 74 | 988.5 |
| 20260506002305 | 13 | 323 | 8.0 | 11.3 | 0.00 | 0.00 | 0.00 | 73 | 988.3 |
| 20260506001801 | 14 | 299 | 8.0 | 12.9 | 0.00 | 0.00 | 0.00 | 73 | 988.3 |
| 20260506001301 | 14 | 304 | 8.0 | 11.3 | 0.00 | 0.00 | 0.00 | 72 | 988.4 |
| 20260506000800 | 14 | 287 | 6.4 | 8.0 | 0.00 | 0.00 | 0.00 | 71 | 988.3 |
| 20260506000302 | 14 | 332 | 4.8 | 8.0 | 0.00 | 0.00 | 0.00 | 71 | 988.5 |
| 20260505235759 | 14 | 329 | 3.2 | 3.2 | 0.00 | 0.00 | 0.00 | 71 | 988.5 |
| 20260505235259 | 14 | 325 | 4.8 | 4.8 | 0.00 | 0.00 | 0.00 | 71 | 988.5 |
| 20260505234758 | 14 | 30 | 3.2 | 4.8 | 0.00 | 0.00 | 0.00 | 71 | 988.5 |
| 20260505234258 | 14 | 307 | 6.4 | 8.0 | 0.00 | 0.00 | 0.00 | 71 | 988.6 |
| 20260505233757 | 14 | 302 | 6.4 | 9.7 | 0.00 | 0.00 | 0.00 | 72 | 988.5 |
| 20260505233257 | 14 | 314 | 8.0 | 11.3 | 0.00 | 0.00 | 0.00 | 71 | 988.5 |
| 20260505232756 | 14 | 341 | 3.2 | 9.7 | 0.00 | 0.00 | 0.00 | 71 | 988.6 |
| 20260505232256 | 14 | 311 | 4.8 | 12.9 | 0.00 | 0.00 | 0.00 | 71 | 988.6 |
| 20260505231755 | 14 | 336 | 6.4 | 9.7 | 0.00 | 0.00 | 0.00 | 70 | 988.5 |
| 20260505231255 | 14 | 325 | 6.4 | 9.7 | 0.00 | 0.00 | 0.00 | 70 | 988.5 |
| 20260505230755 | 15 | 354 | 9.7 | 11.3 | 0.00 | 0.00 | 0.00 | 70 | 988.5 |
| 20260505230254 | 15 | 10 | 6.4 | 9.7 | 0.00 | 0.00 | 0.00 | 70 | 988.6 |
| 20260505225753 | 15 | 20 | 8.0 | 12.9 | 0.00 | 0.00 | 0.00 | 69 | 988.7 |
| 20260505225253 | 15 | 330 | 8.0 | 12.9 | 0.00 | 0.00 | 0.00 | 69 | 988.7 |
| 20260505224752 | 15 | 359 | 8.0 | 12.9 | 0.00 | 0.00 | 0.00 | 69 | 988.8 |
| 20260505224251 | 15 | 6 | 6.4 | 8.0 | 0.00 | 0.00 | 0.00 | 69 | 988.6 |
| 20260505223751 | 15 | 353 | 6.4 | 9.7 | 0.00 | 0.00 | 0.00 | 68 | 988.9 |
| 20260505223250 | 15 | 357 | 6.4 | 11.3 | 0.00 | 0.00 | 0.00 | 68 | 988.9 |
| 20260505222746 | 15 | 25 | 6.4 | 11.3 | 0.00 | 0.00 | 0.00 | 68 | 989.1 |
| 20260505222246 | 15 | 4 | 4.8 | 11.3 | 0.00 | 0.00 | 0.00 | 68 | 989.0 |
| 20260505221746 | 15 | 38 | 3.2 | 4.8 | 0.00 | 0.00 | 0.00 | 68 | 989.1 |
| 20260505221245 | 15 | 24 | 3.2 | 4.8 | 0.00 | 0.00 | 0.00 | 68 | 989.1 |
| 20260505220745 | 15 | 9 | 4.8 | 11.3 | 0.00 | 0.00 | 0.00 | 68 | 988.8 |
| 20260505220244 | 16 | 11 | 8.0 | 11.3 | 0.00 | 0.00 | 0.00 | 68 | 989.3 |
| 20260505215744 | 16 | 2 | 8.0 | 12.9 | 0.00 | 0.00 | 0.00 | 68 | 989.1 |
| 20260505215243 | 16 | 40 | 8.0 | 11.3 | 0.00 | 0.00 | 0.00 | 68 | 989.3 |
| 20260505214742 | 16 | 25 | 8.0 | 9.7 | 0.00 | 0.00 | 0.00 | 68 | 989.2 |
| 20260505214242 | 16 | 46 | 4.8 | 9.7 | 0.00 | 0.00 | 0.00 | 68 | 989.4 |
| 20260505213741 | 16 | 10 | 9.7 | 14.5 | 0.00 | 0.00 | 0.00 | 68 | 989.5 |
| 20260505213241 | 16 | 22 | 6.4 | 9.7 | 0.00 | 0.00 | 0.00 | 68 | 989.3 |
| 20260505212740 | 16 | 69 | 3.2 | 12.9 | 0.00 | 0.00 | 0.00 | 68 | 989.3 |
| 20260505212240 | 16 | 94 | 4.8 | 12.9 | 0.00 | 0.00 | 0.00 | 68 | 989.4 |
| 20260505211729 | 16 | 50 | 9.7 | 17.7 | 0.00 | 0.00 | 0.00 | 68 | 989.2 |
| 20260505211229 | 16 | 49 | 4.8 | 11.3 | 0.00 | 0.00 | 0.00 | 68 | 989.0 |
| 20260505210728 | 17 | 1 | 11.3 | 17.7 | 0.00 | 0.00 | 0.00 | 68 | 989.2 |
| 20260505210227 | 17 | 11 | 9.7 | 24.1 | 0.00 | 0.00 | 0.00 | 68 | 989.2 |
| 20260505205726 | 17 | 22 | 20.9 | 25.7 | 0.00 | 0.00 | 0.00 | 68 | 989.5 |
| 20260505205216 | 17 | 46 | 8.0 | 17.7 | 0.00 | 0.00 | 0.00 | 68 | 989.2 |
| 20260505204715 | 17 | 48 | 19.3 | 24.1 | 0.00 | 0.00 | 0.00 | 68 | 989.1 |
| 20260505204215 | 17 | 27 | 9.7 | 20.9 | 0.00 | 0.00 | 0.00 | 69 | 989.2 |
| 20260505203704 | 17 | 54 | 11.3 | 20.9 | 0.00 | 0.00 | 0.00 | 69 | 988.9 |
| 20260505203204 | 17 | 26 | 11.3 | 20.9 | 0.00 | 0.00 | 0.00 | 69 | 989.1 |
| 20260505202703 | 17 | 32 | 14.5 | 20.9 | 0.00 | 0.00 | 0.00 | 69 | 989.2 |
| 20260505202202 | 17 | 39 | 16.1 | 22.5 | 0.00 | 0.00 | 0.00 | 70 | 989.4 |
| 20260505201701 | 17 | 13 | 14.5 | 25.7 | 0.00 | 0.00 | 0.00 | 70 | 989.3 |
| 20260505201201 | 17 | 60 | 11.3 | 16.1 | 0.00 | 0.00 | 0.00 | 70 | 989.3 |
| 20260505200700 | 18 | 31 | 14.5 | 24.1 | 0.00 | 0.00 | 0.00 | 70 | 989.5 |
| 20260505200200 | 18 | 29 | 8.0 | 24.1 | 0.00 | 0.00 | 0.00 | 70 | 989.3 |
| 20260505195659 | 18 | 33 | 8.0 | 17.7 | 0.00 | 0.00 | 0.00 | 70 | 989.2 |
| 20260505195159 | 18 | 34 | 19.3 | 25.7 | 0.00 | 0.00 | 0.00 | 69 | 989.2 |
| 20260505194659 | 18 | 27 | 16.1 | 22.5 | 0.00 | 0.00 | 0.00 | 70 | 989.2 |
| 20260505194158 | 18 | 29 | 9.7 | 12.9 | 0.00 | 0.00 | 0.00 | 70 | 989.3 |
| 20260505193657 | 18 | 13 | 11.3 | 17.7 | 0.00 | 0.00 | 0.00 | 70 | 989.2 |
| 20260505193156 | 18 | 18 | 16.1 | 22.5 | 0.00 | 0.00 | 0.00 | 70 | 989.4 |
| 20260505192656 | 18 | 349 | 12.9 | 20.9 | 0.00 | 0.00 | 0.00 | 70 | 989.4 |
| 20260505192156 | 18 | 85 | 12.9 | 17.7 | 0.00 | 0.00 | 0.00 | 70 | 989.4 |
| 20260505191655 | 18 | 16 | 16.1 | 20.9 | 0.00 | 0.00 | 0.00 | 70 | 989.4 |
| 20260505191155 | 18 | 15 | 14.5 | 25.7 | 0.00 | 0.00 | 0.00 | 70 | 989.5 |
| 20260505190654 | 18 | 13 | 14.5 | 17.7 | 0.00 | 0.00 | 0.00 | 70 | 989.5 |
| 20260505190154 | 19 | 27 | 14.5 | 17.7 | 0.00 | 0.00 | 0.00 | 70 | 989.5 |
| 20260505185654 | 19 | 352 | 14.5 | 20.9 | 0.00 | 0.00 | 0.00 | 69 | 989.7 |
| 20260505185153 | 19 | 315 | 9.7 | 16.1 | 0.00 | 0.00 | 0.00 | 69 | 989.5 |
| 20260505184653 | 20 | 0 | 14.5 | 20.9 | 0.00 | 0.00 | 0.00 | 68 | 989.5 |
| 20260505184152 | 20 | 347 | 11.3 | 16.1 | 0.00 | 0.00 | 0.00 | 66 | 989.7 |
| 20260505183651 | 20 | 284 | 4.8 | 17.7 | 0.00 | 0.00 | 0.00 | 66 | 989.7 |
| 20260505183150 | 20 | 261 | 6.4 | 20.9 | 0.00 | 0.00 | 0.00 | 65 | 989.7 |
| 20260505182150 | 20 | 347 | 11.3 | 20.9 | 0.00 | 0.00 | 0.00 | 64 | 989.3 |
| 20260505181650 | 20 | 1 | 12.9 | 16.1 | 0.00 | 0.00 | 0.00 | 64 | 989.4 |
| 20260505181149 | 20 | 309 | 12.9 | 22.5 | 0.00 | 0.00 | 0.00 | 64 | 989.3 |
| 20260505180648 | 21 | 358 | 12.9 | 17.7 | 0.00 | 0.00 | 0.00 | 63 | 989.1 |
| 20260505180148 | 21 | 332 | 11.3 | 16.1 | 0.00 | 0.00 | 0.00 | 63 | 989.0 |
| 20260505175647 | 21 | 351 | 17.7 | 24.1 | 0.00 | 0.00 | 0.00 | 62 | 988.8 |
| 20260505175147 | 21 | 350 | 9.7 | 22.5 | 0.00 | 0.00 | 0.00 | 62 | 989.0 |
| 20260505174645 | 21 | 356 | 14.5 | 24.1 | 0.00 | 0.00 | 0.00 | 61 | 989.0 |
| 20260505174145 | 21 | 11 | 14.5 | 29.0 | 0.00 | 0.00 | 0.00 | 61 | 988.9 |
| 20260505173644 | 21 | 18 | 9.7 | 24.1 | 0.00 | 0.00 | 0.00 | 60 | 988.8 |
| 20260505173144 | 22 | 353 | 14.5 | 27.4 | 0.00 | 0.00 | 0.00 | 59 | 988.6 |
| 20260505172643 | 22 | 349 | 20.9 | 27.4 | 0.00 | 0.00 | 0.00 | 59 | 988.7 |
| 20260505172143 | 22 | 4 | 12.9 | 27.4 | 0.00 | 0.00 | 0.00 | 57 | 988.7 |
| 20260505171642 | 22 | 352 | 14.5 | 32.2 | 0.00 | 0.00 | 0.00 | 56 | 988.8 |
| 20260505171141 | 23 | 352 | 25.7 | 29.0 | 0.00 | 0.00 | 0.00 | 53 | 988.9 |
| 20260505170640 | 24 | 359 | 17.7 | 33.8 | 0.00 | 0.00 | 0.00 | 47 | 988.8 |
| 20260505170139 | 24 | 1 | 4.8 | 11.3 | 0.00 | 0.00 | 0.00 | 38 | 988.6 |
| 20260505165639 | 25 | 23 | 8.0 | 14.5 | 0.00 | 0.00 | 0.00 | 37 | 988.6 |
| 20260505165139 | 25 | 43 | 11.3 | 14.5 | 0.00 | 0.00 | 0.00 | 37 | 988.6 |
| 20260505164638 | 25 | 4 | 17.7 | 20.9 | 0.00 | 0.00 | 0.00 | 37 | 988.5 |
| 20260505164138 | 25 | 358 | 11.3 | 17.7 | 0.00 | 0.00 | 0.00 | 37 | 988.5 |
| 20260505163638 | 25 | 21 | 8.0 | 20.9 | 0.00 | 0.00 | 0.00 | 36 | 988.5 |
| 20260505163138 | 25 | 8 | 6.4 | 16.1 | 0.00 | 0.00 | 0.00 | 36 | 988.7 |
| 20260505162637 | 25 | 349 | 8.0 | 11.3 | 0.00 | 0.00 | 0.00 | 35 | 988.6 |
| 20260505162137 | 25 | 34 | 4.8 | 11.3 | 0.00 | 0.00 | 0.00 | 36 | 988.7 |
| 20260505161636 | 26 | 55 | 9.7 | 16.1 | 0.00 | 0.00 | 0.00 | 35 | 988.6 |
| 20260505161136 | 26 | 5 | 4.8 | 4.8 | 0.00 | 0.00 | 0.00 | 33 | 988.7 |
| 20260505160635 | 26 | 8 | 6.4 | 8.0 | 0.00 | 0.00 | 0.00 | 32 | 988.9 |
| 20260505160135 | 26 | 74 | 0.0 | 4.8 | 0.00 | 0.00 | 0.00 | 33 | 988.7 |
| 20260505153131 | 26 | 113 | 0.0 | 1.6 | 0.00 | 0.00 | 0.00 | 32 | 988.9 |
| 20260505152631 | 26 | 273 | 11.3 | 12.9 | 0.00 | 0.00 | 0.00 | 32 | 988.9 |
| 20260505152131 | 26 | 263 | 4.8 | 8.0 | 0.00 | 0.00 | 0.00 | 32 | 988.9 |
| 20260505151620 | 26 | 4 | 11.3 | 12.9 | 0.00 | 0.00 | 0.00 | 32 | 989.0 |
| 20260505151119 | 26 | 29 | 4.8 | 9.7 | 0.00 | 0.00 | 0.00 | 33 | 988.9 |
| 20260505150609 | 26 | 4 | 6.4 | 12.9 | 0.00 | 0.00 | 0.00 | 33 | 989.0 |
| 20260505150109 | 26 | 32 | 9.7 | 11.3 | 0.00 | 0.00 | 0.00 | 33 | 988.8 |
| 20260505140603 | 25 | 94 | 0.0 | 0.0 | 0.00 | 0.00 | 0.00 | 33 | 989.3 |
| 20260505125006 | 26 | 270 | 3.2 | 8.0 | 0.00 | 0.00 | 0.00 | 32 | 989.9 |
| 20260505124506 | 26 | 208 | 6.4 | 8.0 | 0.00 | 0.00 | 0.00 | 34 | 989.9 |
| 20260505124005 | 25 | 216 | 4.8 | 11.3 | 0.00 | 0.00 | 0.00 | 34 | 990.0 |
| 20260505123505 | 25 | 328 | 4.8 | 8.0 | 0.00 | 0.00 | 0.00 | 35 | 989.9 |
| 20260505123005 | 26 | 27 | 8.0 | 9.7 | 0.00 | 0.00 | 0.00 | 34 | 990.2 |
| 20260505122503 | 25 | 49 | 1.6 | 3.2 | 0.00 | 0.00 | 0.00 | 34 | 990.2 |
| 20260505122003 | 26 | 280 | 6.4 | 8.0 | 0.00 | 0.00 | 0.00 | 34 | 990.3 |
| 20260505121502 | 25 | 163 | 4.8 | 8.0 | 0.00 | 0.00 | 0.00 | 35 | 990.4 |
| 20260505121001 | 26 | 303 | 6.4 | 9.7 | 0.00 | 0.00 | 0.00 | 34 | 990.3 |
| 20260505120501 | 25 | 349 | 6.4 | 8.0 | 0.00 | 0.00 | 0.00 | 34 | 990.4 |
| 20260505120001 | 25 | 16 | 3.2 | 8.0 | 0.00 | 0.00 | 0.00 | 34 | 990.3 |
| 20260505115501 | 25 | 45 | 1.6 | 1.6 | 0.00 | 0.00 | 0.00 | 34 | 990.4 |
| 20260505115000 | 25 | 68 | 0.0 | 1.6 | 0.00 | 0.00 | 0.00 | 34 | 990.4 |
| 20260505114459 | 25 | 183 | 1.6 | 4.8 | 0.00 | 0.00 | 0.00 | 35 | 990.5 |
| 20260505113958 | 25 | 188 | 4.8 | 4.8 | 0.00 | 0.00 | 0.00 | 35 | 990.6 |
| 20260505113457 | 24 | 125 | 3.2 | 8.0 | 0.00 | 0.00 | 0.00 | 37 | 990.6 |
| 20260505112956 | 24 | 113 | 4.8 | 4.8 | 0.00 | 0.00 | 0.00 | 37 | 990.6 |
| 20260505112456 | 25 | 136 | 11.3 | 12.9 | 0.00 | 0.00 | 0.00 | 37 | 990.6 |
| 20260505111955 | 25 | 182 | 4.8 | 11.3 | 0.00 | 0.00 | 0.00 | 36 | 990.5 |
| 20260505111445 | 24 | 332 | 1.6 | 8.0 | 0.00 | 0.00 | 0.00 | 37 | 990.6 |
| 20260505110944 | 24 | 147 | 11.3 | 14.5 | 0.00 | 0.00 | 0.00 | 38 | 990.7 |
| 20260505110433 | 24 | 128 | 8.0 | 11.3 | 0.00 | 0.00 | 0.00 | 38 | 990.7 |
| 20260505101811 | 23 | 263 | 1.6 | 4.8 | 0.00 | 0.00 | 0.00 | 40 | 991.2 |
| 20260505101310 | 23 | 349 | 1.6 | 3.2 | 0.00 | 0.00 | 0.00 | 40 | 991.3 |
| 20260505100810 | 23 | 93 | 0.0 | 3.2 | 0.00 | 0.00 | 0.00 | 42 | 991.2 |
| 20260505100308 | 23 | 65 | 0.0 | 1.6 | 0.00 | 0.00 | 0.00 | 42 | 991.4 |
| 20260505095808 | 23 | 72 | 1.6 | 4.8 | 0.00 | 0.00 | 0.00 | 41 | 991.3 |
| 20260505095257 | 22 | 91 | 0.0 | 1.6 | 0.00 | 0.00 | 0.00 | 42 | 991.4 |
| 20260505094757 | 22 | 18 | 0.0 | 1.6 | 0.00 | 0.00 | 0.00 | 42 | 991.5 |
| 20260505094256 | 22 | 1 | 3.2 | 4.8 | 0.00 | 0.00 | 0.00 | 42 | 991.5 |
| 20260505093755 | 22 | 10 | 3.2 | 4.8 | 0.00 | 0.00 | 0.00 | 42 | 991.6 |
| 20260505093244 | 22 | 335 | 3.2 | 8.0 | 0.00 | 0.00 | 0.00 | 44 | 991.5 |
| 20260505092744 | 22 | 38 | 1.6 | 4.8 | 0.00 | 0.00 | 0.00 | 42 | 991.7 |
| 20260505092243 | 22 | 140 | 3.2 | 8.0 | 0.00 | 0.00 | 0.00 | 44 | 991.5 |
| 20260505091742 | 22 | 144 | 3.2 | 4.8 | 0.00 | 0.00 | 0.00 | 45 | 991.6 |
| 20260505091241 | 21 | 123 | 1.6 | 3.2 | 0.00 | 0.00 | 0.00 | 47 | 991.8 |
| 20260505090740 | 21 | 317 | 1.6 | 1.6 | 0.00 | 0.00 | 0.00 | 44 | 991.7 |
| 20260505090240 | 21 | 185 | 4.8 | 4.8 | 0.00 | 0.00 | 0.00 | 47 | 991.7 |
| 20260505085739 | 21 | 172 | 3.2 | 4.8 | 0.00 | 0.00 | 0.00 | 53 | 991.8 |
| 20260505085239 | 21 | 161 | 1.6 | 8.0 | 0.00 | 0.00 | 0.00 | 53 | 991.9 |
| 20260505084739 | 21 | 148 | 1.6 | 1.6 | 0.00 | 0.00 | 0.00 | 55 | 992.0 |
| 20260505084239 | 20 | 143 | 0.0 | 0.0 | 0.00 | 0.00 | 0.00 | 57 | 992.0 |
| 20260505083737 | 20 | 144 | 3.2 | 4.8 | 0.00 | 0.00 | 0.00 | 57 | 992.0 |
| 20260505083227 | 20 | 60 | 0.0 | 1.6 | 0.00 | 0.00 | 0.00 | 57 | 992.2 |
| 20260505082727 | 20 | 42 | 1.6 | 3.2 | 0.00 | 0.00 | 0.00 | 59 | 992.2 |
| 20260505082216 | 20 | 52 | 1.6 | 3.2 | 0.00 | 0.00 | 0.00 | 59 | 992.2 |
| 20260505081716 | 19 | 127 | 0.0 | 1.6 | 0.00 | 0.00 | 0.00 | 61 | 992.4 |
| 20260505081215 | 19 | 115 | 1.6 | 3.2 | 0.00 | 0.00 | 0.00 | 62 | 992.4 |
| 20260505080714 | 18 | 114 | 0.0 | 4.8 | 0.00 | 0.00 | 0.00 | 66 | 992.6 |
| 20260505080214 | 17 | 69 | 0.0 | 4.8 | 0.00 | 0.00 | 0.00 | 66 | 992.3 |
| 20260505075713 | 17 | 66 | 1.6 | 3.2 | 0.00 | 0.00 | 0.00 | 66 | 992.4 |
| 20260505075213 | 18 | 59 | 3.2 | 3.2 | 0.00 | 0.00 | 0.00 | 65 | 992.5 |
| 20260505074712 | 17 | 27 | 0.0 | 0.0 | 0.00 | 0.00 | 0.00 | 67 | 992.6 |
| 20260505074211 | 17 | 39 | 0.0 | 1.6 | 0.00 | 0.00 | 0.00 | 68 | 992.6 |
| 20260505073710 | 17 | 77 | 0.0 | 1.6 | 0.00 | 0.00 | 0.00 | 68 | 992.6 |
| 20260505073209 | 17 | 77 | 0.0 | 0.0 | 0.00 | 0.00 | 0.00 | 69 | 992.6 |
| 20260505072709 | 17 | 78 | 1.6 | 1.6 | 0.00 | 0.00 | 0.00 | 69 | 992.5 |
| 20260505072208 | 16 | 63 | 0.0 | 0.0 | 0.00 | 0.00 | 0.00 | 69 | 992.7 |
| 20260505071708 | 16 | 74 | 0.0 | 3.2 | 0.00 | 0.00 | 0.00 | 71 | 992.6 |
| 20260505071207 | 16 | 107 | 3.2 | 4.8 | 0.00 | 0.00 | 0.00 | 72 | 992.3 |